Orbital Elements
The following orbital elements are taken from MPO104057
Epoch 2007 Apr. 10.0 TT = JDT 2454200.5 MPC
M 168.33240 (2000.0) P Q
n 0.68755539 Peri. 322.01320 -0.63135273 +0.67806049
a 1.2713475 Node 265.39593 -0.58637572 -0.73498417
e 0.8900252 Incl. 22.18218 -0.50750098 +0.00567788
P 1.43 H 14.6 G 0.15 U 0
From 1515 observations at 20 oppositions, 1983-2006, mean residual 0".54.
|